Stewartville, MN

9:25 AM CDT on August 26, 2016 (GMT -0500)
Rochester International

Weather History for KRST - January, 2014

Change the Weather History Date:

Sunday, January 26, 2014

  Actual Average Record
Temperature  
Mean Temperature 7 °F 16 °F  
Max Temperature 19 °F 24 °F 52 °F (2002)
Min Temperature -6 °F 8 °F -30 °F (1917)
Degree Days  
Heating Degree Days 58 49  
Month to date heating degree days 1482 1287  
Since 1 July heating degree days 4776 4365  
Cooling Degree Days 0 0  
Month to date cooling degree days 0 0  
Year to date cooling degree days 0 0  
Moisture  
Dew Point 4 °F    
Average Humidity 77    
Maximum Humidity 83    
Minimum Humidity 71    
Precipitation  
Precipitation 0.06 in 0.03 in 0.38 in (1916)
Month to date precipitation 0.82 0.72  
Year to date precipitation 0.82 0.72  
Snow  
Snow 1.30 in 0.40 in 7.20 in (1996)
Month to date snowfall 12.0 10.0  
Since 1 July snowfall 26.4 29.4  
Snow Depth 12.00 in    
Sea Level Pressure  
Sea Level Pressure 29.56 in    
Wind  
Wind Speed 24 mph (WNW)    
Max Wind Speed 44 mph    
Max Gust Speed 58 mph    
Visibility 2 miles    
Events Rain , Snow    
T = Trace of Precipitation, MM = Missing Value Source: NWS Daily Summary

Daily Weather History Graph

Daily Weather History Graph

Search for Another Location

Airport or City:

Trip Planner

Search our weather history database for the weather conditions in past years. The results will help you decide how hot, cold, wet, or windy it might be!

Date:

Astronomy

Jan. 26, 2014 Rise Set
Actual Time 7:33 AM CST 5:12 PM CST
Civil Twilight 7:02 AM CST 5:43 PM CST
Nautical Twilight 6:27 AM CST 6:18 PM CST
Astronomical Twilight 5:53 AM CST 6:52 PM CST
Moon 3:11 AM CST 1:01 PM CST
Length of Visible Light 10h 41m
Length of Day
9h 39m
Waning Crescent, 23% of the Moon is Illuminated
Jan 26
Waning Crescent
Jan 30
New
Feb 6
First Quarter
Feb 14
Full
Feb 22
Last Quarter

Hourly Weather History & Observations

Time (CST) Temp. Windchill Dew Point Humidity Pressure Visibility Wind Dir Wind Speed Gust Speed Precip Events Conditions
12:43 AM 8.1 °F -7.0 °F 3.9 °F 83% 29.47 in 0.8 mi SE 11.5 mph - 0.07 in Snow Light Snow
12:54 AM 9.0 °F -7.3 °F 3.9 °F 80% 29.55 in 1.2 mi SE 13.8 mph - 0.08 in Snow Light Snow
1:03 AM 9.0 °F -7.3 °F 3.9 °F 80% 29.44 in 1.8 mi SE 13.8 mph - 0.00 in Snow Light Snow
1:07 AM 9.0 °F -7.9 °F 3.9 °F 80% 29.44 in 3.0 mi SE 15.0 mph - 0.01 in Snow Light Snow
1:37 AM 9.0 °F -7.9 °F 3.9 °F 80% 29.42 in 10.0 mi SE 15.0 mph - 0.01 in   Overcast
1:54 AM 9.0 °F -7.3 °F 3.9 °F 80% 29.50 in 9.0 mi SE 13.8 mph - 0.01 in   Overcast
2:13 AM 9.0 °F -9.5 °F 3.9 °F 80% 29.39 in 4.0 mi SE 18.4 mph - 0.00 in Rain Light Freezing Rain
2:34 AM 9.0 °F -8.5 °F 5.0 °F 84% 29.37 in 2.0 mi SE 16.1 mph - 0.00 in Snow Light Snow
2:44 AM 9.0 °F -9.0 °F 5.0 °F 84% 29.36 in 1.5 mi SE 17.3 mph - 0.00 in Snow Light Snow
2:54 AM 9.0 °F -6.6 °F 5.0 °F 84% 29.45 in 1.0 mi SE 12.7 mph - 0.00 in Snow Light Snow
3:02 AM 10.0 °F -5.2 °F 5.0 °F 80% 29.35 in 1.2 mi SSE 12.7 mph - 0.00 in Snow Light Snow
3:24 AM 10.0 °F -4.5 °F 6.1 °F 84% 29.36 in 1.5 mi SSE 11.5 mph - 0.00 in Snow Light Snow
3:35 AM 10.0 °F -5.9 °F 6.1 °F 84% 29.35 in 3.0 mi SSE 13.8 mph - 0.00 in Snow Light Snow
3:54 AM 10.9 °F -5.4 °F 6.1 °F 81% 29.43 in 5.0 mi SSE 15.0 mph - 0.00 in Snow Light Snow
4:54 AM 10.9 °F -2.6 °F 7.0 °F 84% 29.43 in 6.0 mi SSE 10.4 mph - 0.00 in   Overcast
5:54 AM 12.0 °F 0.5 °F 7.0 °F 80% 29.40 in 10.0 mi SSE 8.1 mph - N/A   Overcast
6:54 AM 14.0 °F 1.2 °F 9.0 °F 80% 29.43 in 10.0 mi SW 10.4 mph - N/A   Overcast
7:02 AM 15.1 °F 1.1 °F 10.9 °F 84% 29.35 in 10.0 mi WSW 12.7 mph - 0.00 in   Overcast
7:32 AM 19.0 °F 1.6 °F 15.1 °F 85% 29.36 in 2.0 mi WNW 24.2 mph 32.2 mph 0.00 in   Overcast
7:44 AM 18.0 °F -1.4 °F 14.0 °F 84% 29.36 in 1.5 mi WNW 29.9 mph 36.8 mph 0.00 in Snow Blowing Snow
7:49 AM 17.6 °F -1.6 °F 12.2 °F 79% 29.36 in 1.2 mi WNW 28.8 mph 36.8 mph 0.00 in Snow Blowing Snow
7:54 AM 18.0 °F -0.2 °F 12.9 °F 81% 29.43 in 1.2 mi WNW 25.3 mph 35.7 mph 0.00 in Snow Blowing Snow
8:54 AM 16.0 °F -2.5 °F 10.9 °F 81% 29.44 in 1.2 mi WNW 24.2 mph 33.4 mph N/A Snow Blowing Snow
9:06 AM 16.0 °F -1.7 °F 10.9 °F 81% 29.36 in 1.8 mi WNW 21.9 mph 31.1 mph N/A Snow Blowing Snow
9:17 AM 16.0 °F -0.9 °F 10.9 °F 81% 29.36 in 3.0 mi WNW 19.6 mph - N/A Snow Blowing Snow
9:25 AM 16.0 °F -1.3 °F 10.9 °F 81% 29.37 in 5.0 mi WNW 20.7 mph - N/A Snow Blowing Snow
9:45 AM 17.1 °F -1.7 °F 10.9 °F 77% 29.37 in 3.0 mi WNW 26.5 mph 33.4 mph N/A Snow Blowing Snow
9:54 AM 17.1 °F -0.6 °F 10.0 °F 74% 29.46 in 3.0 mi WNW 23.0 mph 35.7 mph N/A Snow Blowing Snow
10:32 AM 17.1 °F -0.3 °F 10.9 °F 77% 29.41 in 2.5 mi WNW 21.9 mph 33.4 mph N/A Snow Blowing Snow
10:49 AM 17.6 °F 0.1 °F 10.4 °F 73% 29.41 in 1.5 mi WNW 23.0 mph 34.5 mph N/A Snow Blowing Snow
10:54 AM 18.0 °F 0.6 °F 10.9 °F 74% 29.49 in 2.0 mi WNW 23.0 mph 32.2 mph N/A Snow Blowing Snow
11:33 AM 18.0 °F -0.5 °F 12.0 °F 78% 29.41 in 3.0 mi WNW 26.5 mph 32.2 mph N/A Snow Blowing Snow
11:41 AM 18.0 °F -0.2 °F 12.0 °F 78% 29.42 in 2.0 mi WNW 25.3 mph 33.4 mph N/A Snow Blowing Snow
11:54 AM 18.0 °F -1.1 °F 12.0 °F 78% 29.50 in 2.0 mi WNW 28.8 mph - N/A Snow Blowing Snow
11:59 AM 18.0 °F -0.2 °F 12.0 °F 78% 29.41 in 1.2 mi WNW 25.3 mph - N/A Snow Blowing Snow
12:06 PM 18.0 °F 0.9 °F 12.0 °F 78% 29.40 in 1.8 mi WNW 21.9 mph - N/A Snow Blowing Snow
12:13 PM 18.0 °F 0.9 °F 12.0 °F 78% 29.40 in 2.5 mi WNW 21.9 mph - N/A Snow Blowing Snow
12:26 PM 18.0 °F 1.3 °F 10.9 °F 74% 29.40 in 4.0 mi WNW 20.7 mph - N/A Snow Blowing Snow
12:36 PM 18.0 °F 0.2 °F 10.9 °F 74% 29.41 in 3.0 mi WNW 24.2 mph 33.4 mph N/A Snow Blowing Snow
12:43 PM 18.0 °F 0.6 °F 10.9 °F 74% 29.41 in 2.0 mi WNW 23.0 mph 33.4 mph N/A Snow Blowing Snow
12:54 PM 18.0 °F 0.6 °F 10.9 °F 74% 29.49 in 2.5 mi WNW 23.0 mph 32.2 mph N/A Snow Blowing Snow
1:02 PM 18.0 °F 0.6 °F 10.9 °F 74% 29.40 in 1.8 mi WNW 23.0 mph 32.2 mph N/A Snow Blowing Snow
1:25 PM 18.0 °F -0.8 °F 12.0 °F 78% 29.40 in 0.8 mi WNW 27.6 mph 33.4 mph N/A Snow Blowing Snow
1:47 PM 18.0 °F 0.9 °F 12.0 °F 78% 29.42 in 1.5 mi WNW 21.9 mph 28.8 mph N/A Snow Blowing Snow
1:54 PM 18.0 °F -0.5 °F 12.0 °F 78% 29.49 in 0.8 mi WNW 26.5 mph 33.4 mph N/A Snow Blowing Snow
2:18 PM 18.0 °F -0.5 °F 12.9 °F 81% 29.43 in 0.5 mi WNW 26.5 mph 34.5 mph N/A Snow Blowing Snow
2:26 PM 18.0 °F -2.0 °F 12.0 °F 78% 29.43 in 0.2 mi WNW 32.2 mph 39.1 mph N/A Snow Blowing Snow
2:35 PM 17.1 °F -3.5 °F 10.9 °F 77% 29.45 in 0.2 mi WNW 33.4 mph 42.6 mph N/A Snow Blowing Snow
2:39 PM 17.1 °F -3.0 °F 10.0 °F 74% 29.44 in 0.2 mi NW 31.1 mph 42.6 mph N/A Snow Blowing Snow
2:54 PM 16.0 °F -4.4 °F 9.0 °F 74% 29.54 in 0.2 mi NW 31.1 mph 40.3 mph N/A Snow Blowing Snow
3:02 PM 15.1 °F -5.3 °F 10.0 °F 80% 29.47 in 0.2 mi WNW 29.9 mph 38.0 mph N/A Snow Blowing Snow
3:21 PM 14.0 °F -7.1 °F 9.0 °F 80% 29.49 in 0.2 mi WNW 31.1 mph 44.9 mph 0.01 in Snow Blowing Snow
3:33 PM 14.0 °F -7.1 °F 8.1 °F 77% 29.50 in 0.2 mi WNW 31.1 mph 47.2 mph 0.01 in Snow Blowing Snow
3:54 PM 10.9 °F -12.8 °F 3.9 °F 73% 29.60 in 0.2 mi NW 36.8 mph 57.5 mph 0.01 in Snow Blowing Snow
4:05 PM 10.9 °F -11.6 °F 3.0 °F 70% 29.53 in 0.2 mi NW 32.2 mph 42.6 mph N/A Snow Blowing Snow
4:14 PM 10.9 °F -11.9 °F 3.0 °F 70% 29.53 in 0.2 mi WNW 33.4 mph 39.1 mph N/A Snow Blowing Snow
4:24 PM 10.0 °F -13.4 °F 3.0 °F 73% 29.55 in 0.2 mi WNW 34.5 mph 49.5 mph N/A Snow Blowing Snow
4:54 PM 6.1 °F -19.8 °F -0.9 °F 73% 29.66 in 0.2 mi WNW 38.0 mph 48.3 mph N/A Snow Blowing Snow
5:01 PM 6.1 °F -16.8 °F -2.0 °F 69% 29.59 in 0.2 mi WNW 27.6 mph 47.2 mph 0.02 in Snow Blowing Snow
5:06 PM 6.1 °F -17.6 °F -0.9 °F 73% 29.60 in 0.2 mi WNW 29.9 mph 40.3 mph 0.02 in Snow Blowing Snow
5:13 PM 7.0 °F -17.7 °F -0.0 °F 73% 29.60 in 0.5 mi WNW 34.5 mph 47.2 mph 0.02 in Snow Blowing Snow
5:20 PM 5.0 °F -20.1 °F -0.9 °F 76% 29.61 in 0.2 mi WNW 33.4 mph 47.2 mph 0.02 in Snow Blowing Snow
5:44 PM 3.0 °F -22.1 °F -2.0 °F 80% 29.63 in 0.2 mi WNW 31.1 mph 42.6 mph 0.02 in Snow Blowing Snow
5:54 PM 3.0 °F -22.4 °F -2.0 °F 80% 29.73 in 0.2 mi NW 32.2 mph 48.3 mph 0.02 in Snow Blowing Snow
6:54 PM -0.0 °F -28.3 °F -6.0 °F 76% 29.80 in 0.2 mi NW 38.0 mph 48.3 mph N/A Snow Blowing Snow
7:10 PM -0.0 °F -28.0 °F -6.0 °F 76% 29.73 in 0.5 mi NW 36.8 mph 44.9 mph N/A Snow Blowing Snow
7:19 PM -0.0 °F -25.1 °F -7.1 °F 72% 29.73 in 0.5 mi NW 27.6 mph 43.7 mph N/A Snow Blowing Snow
7:54 PM -0.9 °F -28.2 °F -7.1 °F 75% 29.86 in 0.5 mi NW 33.4 mph 43.7 mph 0.03 in Snow Blowing Snow
8:18 PM -2.0 °F -26.4 °F -8.0 °F 76% 29.80 in 1.0 mi NW 24.2 mph 36.8 mph N/A Snow Blowing Snow
8:54 PM -2.0 °F -27.8 °F -9.0 °F 72% 29.94 in 1.2 mi NW 27.6 mph 40.3 mph N/A Snow Blowing Snow
9:20 PM -2.9 °F -27.6 °F -9.0 °F 75% 29.87 in 2.0 mi NW 24.2 mph 34.5 mph N/A Snow Blowing Snow
9:36 PM -2.9 °F -28.1 °F -9.9 °F 72% 29.89 in 1.5 mi NW 25.3 mph 34.5 mph N/A Snow Blowing Snow
9:54 PM -2.9 °F -29.0 °F -9.9 °F 72% 29.99 in 1.5 mi NW 27.6 mph 36.8 mph N/A Snow Blowing Snow
10:04 PM -2.9 °F -29.4 °F -9.9 °F 72% 29.90 in 2.5 mi NW 28.8 mph 39.1 mph N/A Snow Blowing Snow
10:27 PM -4.0 °F -32.4 °F -11.0 °F 72% 29.91 in 1.2 mi NW 33.4 mph 40.3 mph N/A Snow Blowing Snow
10:45 PM -4.0 °F -31.6 °F -11.0 °F 72% 29.92 in 1.5 mi NW 31.1 mph 40.3 mph N/A Snow Blowing Snow
10:47 PM -4.0 °F -32.0 °F -11.0 °F 72% 29.93 in 1.2 mi NW 32.2 mph 40.3 mph N/A Snow Blowing Snow
10:54 PM -4.0 °F -30.9 °F -11.0 °F 72% 30.03 in 1.0 mi NW 28.8 mph 41.4 mph N/A   Haze
11:16 PM -5.1 °F -33.1 °F -11.0 °F 76% 29.96 in 1.5 mi NW 31.1 mph 35.7 mph N/A   Haze
11:25 PM -5.1 °F -32.3 °F -11.9 °F 72% 29.96 in 1.2 mi NW 28.8 mph 40.3 mph N/A   Haze
11:33 PM -5.1 °F -32.7 °F -11.9 °F 72% 29.97 in 1.8 mi NW 29.9 mph 35.7 mph N/A   Haze
11:49 PM -5.8 °F -32.9 °F -13.0 °F 71% 29.98 in 2.0 mi NW 27.6 mph 33.4 mph N/A   Haze
11:54 PM -6.0 °F -31.2 °F -13.0 °F 72% 30.08 in 2.0 mi WNW 23.0 mph - N/A   Haze